Date,TemperatureHighF,TemperatureAvgF,TemperatureLowF,DewpointHighF,DewpointAvgF,DewpointLowF,HumidityHigh,HumidityAvg,HumidityLow,PressureMaxIn,PressureMinIn,WindSpeedMaxMPH,WindSpeedAvgMPH,GustSpeedMaxMPH,PrecipitationSumIn
2013-7-1,77.9,72.8,70.0,74.2,71.3,69.4,98,95,86,30.08,29.92,11,5,20,0.01
2013-7-2,79.0,73.4,71.6,74.3,71.5,70.3,97,94,83,30.20,30.07,9,6,17,0.02
2013-7-3,76.8,73.5,70.7,73.8,71.7,69.5,97,94,89,30.25,30.18,7,4,15,0.00
2013-7-4,82.9,75.2,71.4,75.4,72.3,70.2,98,91,78,30.25,30.17,9,6,19,0.00
2013-7-5,82.6,76.0,71.1,74.7,72.0,69.3,95,88,77,30.20,30.10,9,6,20,0.00
2013-7-6,77.0,74.0,72.0,73.3,71.7,70.5,95,93,87,30.13,30.10,9,6,19,0.00
2013-7-17,89.3,80.3,74.6,76.4,74.4,71.1,95,83,59,30.16,30.04,8,3,16,0.00
2013-7-18,95.6,84.0,76.5,78.4,76.1,73.5,93,78,55,30.03,29.95,5,3,15,0.00
2013-7-19,86.9,80.7,76.5,78.8,76.1,73.9,95,86,77,29.94,29.79,8,6,20,0.00
2013-7-20,83.9,78.6,74.0,76.7,73.9,70.6,94,86,74,29.83,29.71,8,5,21,0.00
2013-7-21,82.6,76.1,72.5,72.0,69.1,65.3,95,80,58,29.95,29.82,8,3,16,0.00
2013-7-22,80.5,75.1,72.6,75.5,73.2,71.7,97,94,80,29.95,29.76,8,4,17,0.02
2013-7-23,83.7,77.1,70.2,77.0,74.0,68.1,98,90,76,29.75,29.55,9,5,21,0.83
2013-7-24,88.3,78.4,70.7,76.1,70.4,61.4,97,78,57,29.87,29.57,7,3,17,0.00
2013-7-25,72.6,64.5,61.5,61.7,60.0,58.1,95,86,68,30.01,29.87,7,5,17,0.31
2013-7-26,76.8,66.5,60.9,69.0,63.9,59.8,97,92,73,30.04,29.91,8,4,19,0.64
2013-7-27,79.4,72.7,68.1,72.4,69.1,66.8,96,89,75,30.06,29.95,6,3,16,0.00
2013-7-28,80.4,73.3,69.2,71.8,69.7,67.9,97,89,72,29.99,29.92,5,2,11,0.00
2013-7-29,82.1,76.3,71.0,74.8,71.6,67.6,97,86,72,30.05,29.93,6,4,17,0.00
2013-7-30,82.9,73.7,63.8,66.5,61.4,57.4,86,67,42,30.12,30.05,6,4,17,0.00
2013-7-31,80.7,72.2,64.2,67.2,63.7,60.2,90,76,52,30.13,30.04,7,3,15,0.00